Snowfall_Accumulation
1.6 3.7 5.6 2.3 1.6 1.9 1.9 2.6 2.7 1.4 0.3 0.7 1.1 0.7 0.1 0.1 0.1 0.2 0.1 0.0 0.1 0.0 0.0 0.0 0.0 0.0 0.0 0.0 0.0 0.0 0.0 0.0 0.0 0.0 0.0 0.0 0.0 0.0 0.0 0.0 0.0 0.0 0.0 0.0
4.3 5.2 1.3 0.6 1.2 1.9 2.7 3.3 2.8 1.2 0.4 1.2 1.4 0.8 0.2 0.1 0.2 0.1 0.1 0.1 0.1 0.1 0.0 0.0 0.0 0.0 0.0 0.0 0.0 0.0 0.0 0.0 0.0 0.0 0.0 0.0 0.0 0.0 0.0 0.0 0.0 0.0 0.0 0.0
5.7 2.8 0.5 1.7 2.6 3.1 2.8 3.0 2.4 2.2 1.1 0.8 1.9 1.5 0.4 0.1 0.0 0.1 0.1 0.0 0.0 0.1 0.1 0.0 0.0 0.0 0.0 0.0 0.0 0.0 0.0 0.0 0.0 0.0 0.0 0.0 0.0 0.0 0.0 0.0 0.0 0.0 0.0 0.0
3.7 1.2 0.8 2.8 3.4 3.1 3.9 1.0 1.4 2.2 3.8 3.9 3.1 4.9 1.2 0.4 0.3 0.1 0.1 0.1 0.1 0.0 0.0 0.0 0.0 0.0 0.0 0.0 0.0 0.0 0.0 0.0 0.0 0.0 0.0 0.0 0.0 0.0 0.0 0.0 0.0 0.0 0.0 0.0
5.0 1.8 1.8 3.3 2.4 2.2 2.4 0.6 1.1 2.3 4.5 6.0 3.3 5.6 1.9 0.9 0.8 0.7 0.6 0.2 0.2 0.1 0.1 0.0 0.0 0.0 0.0 0.0 0.0 0.0 0.0 0.0 0.0 0.0 0.0 0.0 0.0 0.0 0.0 0.0 0.0 0.0 0.0 0.0
2.9 1.3 2.2 2.2 0.8 0.9 1.2 1.3 1.5 3.0 5.9 13.4 4.3 4.7 3.0 1.9 2.4 1.6 0.9 0.3 0.3 0.1 0.1 0.1 0.1 0.0 0.0 0.0 0.0 0.0 0.0 0.0 0.0 0.0 0.0 0.0 0.0 0.0 0.0 0.0 0.0 0.0 0.0 0.0
6.2 2.8 1.6 1.0 3.0 2.3 4.2 10.8 20.7 21.8 21.3 11.6 1.8 3.1 3.1 1.8 1.6 1.6 1.3 0.5 0.2 0.1 0.1 0.1 0.2 0.2 0.1 0.1 0.0 0.0 0.0 0.0 0.0 0.0 0.0 0.0 0.0 0.0 0.0 0.0 0.0 0.0 0.1 0.0
8.3 6.8 2.6 1.8 3.1 5.0 5.4 9.0 16.3 15.2 10.2 4.5 2.0 2.5 2.3 1.5 1.3 1.2 1.2 0.7 0.2 0.1 0.2 0.1 0.2 0.2 0.2 0.1 0.1 0.1 0.0 0.0 0.0 0.0 0.0 0.0 0.0 0.0 0.0 0.0 0.0 0.1 0.1 0.1
8.5 5.9 1.8 1.4 1.4 2.7 6.2 8.3 5.8 9.8 7.2 4.9 3.6 2.2 1.7 1.2 1.2 1.0 1.1 0.9 0.5 0.2 0.1 0.1 0.2 0.2 0.1 0.2 0.1 0.1 0.1 0.1 0.0 0.0 0.0 0.0 0.0 0.0 0.0 0.0 0.0 0.1 0.1 0.1
8.5 7.9 2.9 1.2 1.4 1.3 2.8 4.9 7.9 14.6 12.4 6.6 3.4 2.2 2.6 2.1 1.9 1.4 1.2 1.1 0.8 0.3 0.3 0.3 0.3 0.2 0.1 0.2 0.1 0.1 0.0 0.1 0.0 0.0 0.0 0.0 0.0 0.0 0.0 0.0 0.1 0.1 0.1 0.1
7.6 10.1 6.6 3.6 5.4 5.6 4.4 6.1 9.0 12.0 10.5 7.7 4.5 3.3 2.9 2.4 2.2 2.1 1.6 1.5 1.3 0.7 0.4 0.4 0.5 0.3 0.3 0.2 0.1 0.1 0.1 0.1 0.1 0.1 0.0 0.0 0.0 0.0 0.0 0.1 0.1 0.1 0.1 0.1
7.1 10.6 9.7 5.2 2.4 2.1 4.0 5.5 7.4 12.5 10.2 6.3 5.1 3.3 2.0 1.9 1.9 1.8 1.7 1.4 0.9 0.9 0.7 0.4 0.7 0.6 0.4 0.4 0.3 0.2 0.2 0.1 0.0 0.0 0.0 0.1 0.0 0.0 0.1 0.1 0.1 0.1 0.1 0.1
12.0 16.3 15.5 8.5 4.6 3.5 5.9 5.5 5.9 7.3 8.1 6.8 5.5 3.1 1.3 1.1 1.2 1.3 1.3 1.4 1.0 0.9 0.7 0.6 0.8 0.7 1.0 0.8 0.7 0.6 0.3 0.1 0.0 0.0 0.0 0.0 0.0 0.0 0.1 0.1 0.1 0.1 0.1 0.1
11.2 19.5 13.1 10.6 7.7 7.4 7.4 5.7 5.3 7.9 10.8 6.3 3.1 2.5 1.7 1.2 1.2 1.4 1.5 1.5 1.6 1.0 1.1 1.1 1.0 0.9 0.7 0.7 0.7 0.6 0.3 0.1 0.1 0.1 0.0 0.0 0.1 0.1 0.1 0.1 0.1 0.2 0.1 0.5
12.5 17.0 7.3 3.6 3.0 4.1 4.6 4.1 4.5 6.1 6.1 5.3 2.4 2.0 2.0 1.9 1.7 2.0 2.0 1.7 1.7 1.6 1.7 1.4 1.4 1.0 1.1 1.0 0.7 0.4 0.3 0.2 0.1 0.1 0.1 0.1 0.0 0.1 0.1 0.1 0.1 0.2 0.4 0.5
12.9 15.0 7.7 4.1 2.0 3.0 3.6 2.9 3.2 3.5 3.1 2.9 2.0 1.8 1.4 1.3 1.6 1.9 1.8 1.9 2.0 2.1 2.0 1.6 1.3 1.3 1.2 1.5 1.1 0.5 0.4 0.2 0.1 0.3 0.3 0.1 0.1 0.1 0.3 0.4 0.2 0.3 0.5 0.8
14.0 14.2 12.9 7.9 3.0 5.7 7.2 3.7 3.4 3.4 3.2 3.1 3.4 2.7 1.7 1.5 1.7 2.2 2.2 2.1 2.3 2.3 2.1 1.6 1.6 1.5 1.5 1.3 1.1 1.0 0.9 0.8 0.7 0.5 0.3 0.2 0.2 0.2 0.4 0.5 0.5 0.6 0.9 1.0
10.9 12.9 16.2 12.5 9.7 13.2 5.5 2.8 2.8 3.6 4.1 3.8 3.4 2.8 2.3 2.2 2.1 2.1 2.3 2.5 2.3 2.1 1.8 1.6 1.7 1.7 1.6 1.3 1.0 0.9 0.8 0.8 0.5 0.4 0.4 0.4 0.4 0.4 0.5 0.6 0.8 0.7 0.9 1.0
4.9 11.5 18.6 17.5 13.9 8.0 3.4 2.6 3.9 4.6 5.0 4.2 3.3 2.4 2.1 2.2 2.0 1.8 2.0 2.4 2.7 2.2 1.9 1.7 1.8 1.8 1.5 1.2 1.1 1.0 0.8 0.9 0.8 0.8 0.7 0.6 0.5 0.5 0.6 0.6 0.7 0.7 0.9 0.7
4.7 9.6 19.1 19.0 14.8 8.0 4.2 2.5 2.7 3.6 5.7 3.6 3.4 3.3 2.7 2.6 2.9 3.1 2.6 2.5 2.1 1.7 1.5 1.7 1.7 1.6 1.3 1.3 1.1 1.1 0.9 0.9 0.9 0.8 0.7 0.6 0.6 0.7 0.7 0.6 0.6 0.6 0.8 1.0
9.1 14.8 18.4 14.9 12.5 6.2 3.7 2.6 2.3 5.3 6.7 3.4 3.4 3.7 3.5 3.6 3.9 3.6 2.6 2.2 2.4 1.8 1.7 1.6 1.6 1.5 1.3 1.1 1.1 1.1 1.0 1.0 1.0 0.8 0.6 0.6 0.6 0.7 0.7 0.7 0.8 0.8 0.8 1.0
7.2 10.5 10.7 9.9 11.8 7.2 3.6 3.3 5.4 6.4 3.9 3.4 3.3 3.3 3.4 3.2 3.1 2.6 2.2 2.1 2.1 1.9 1.8 1.7 1.5 1.3 1.0 1.0 1.0 1.1 1.2 1.2 0.9 0.8 0.6 0.6 0.7 0.6 0.6 0.7 0.8 0.8 0.8 1.0
5.5 6.9 7.3 6.8 6.1 4.4 4.1 4.9 5.0 4.1 4.0 3.4 3.4 3.2 3.3 3.3 3.3 3.0 2.0 2.0 1.9 1.9 1.8 1.7 1.5 1.1 1.0 1.0 0.9 1.2 1.2 1.1 0.9 1.0 1.0 0.8 0.7 0.6 0.7 0.8 1.0 1.0 0.9 1.5
3.8 3.5 5.0 5.3 3.7 3.0 2.8 3.1 3.2 2.9 3.5 3.0 3.1 3.3 3.3 3.3 3.2 2.6 2.1 1.9 2.0 1.8 1.7 1.5 1.4 1.4 1.3 1.4 1.0 1.2 1.0 1.1 1.2 1.2 1.0 0.8 0.8 0.8 0.7 0.9 1.0 1.3 1.6 2.6
3.5 3.1 3.9 4.2 3.0 2.5 2.0 2.0 2.1 2.4 2.2 2.3 2.5 2.8 3.0 2.9 2.6 2.3 2.0 1.7 1.8 2.0 1.6 1.5 1.5 1.4 1.5 1.7 1.1 1.1 1.1 1.3 1.7 1.4 1.0 0.9 0.9 0.9 1.0 1.0 1.1 1.6 2.0 3.8
2.8 3.3 3.9 4.1 3.1 3.5 2.9 2.2 1.8 2.0 2.2 2.1 2.2 2.4 2.3 2.3 2.0 1.8 1.8 1.7 1.7 1.6 1.6 1.3 1.2 1.1 1.2 1.1 1.3 1.2 1.3 1.7 1.9 1.5 1.2 1.2 1.1 1.1 1.2 1.2 1.3 1.0 1.5 2.1